National Weather Service Raw Text Product

Displaying AFOS PIL: RWRIA Received: 2018-01-12 02:00 UTC


835 
ASUS43 KDMX 120206
RWRIA 

WEATHER ROUNDUP FOR IOWA
NATIONAL WEATHER SERVICE DES MOINES IA
800 PM CST THU JAN 11 2018

NOTE: "FAIR" INDICATES FEW OR NO CLOUDS BELOW 12,000 FEET WITH NO
SIGNIFICANT WEATHER AND/OR OBSTRUCTIONS TO VISIBILITY.

* - THESE STATIONS ARE NOT NWS STATIONS...THUS NOT UNDER NWS
QUALITY CONTROL.  THEY ALSO DO NOT REPORT WEATHER SUCH 
AS PRECIPITATION OR FOG.  

IAZ001>003-012>014-020>022-031>034-043>046-120300-
   NORTHWEST IOWA
  
CITY           SKY/WX    TMP DP  RH WIND       PRES   REMARKS
CARROLL *      LGT SNOW   9   5  85 NW23G35   30.19R WCI -12          
CHEROKEE *     CLEAR      6  -1  72 N16G25    30.25R WCI -12          
DENISON *      MOCLDY     9   1  72 NW24G33   30.24R WCI -12          
LE MARS *      CLEAR      7  -2  66 NW16G22   30.29S WCI -11          
ORANGE CITY *  CLEAR      7   0  72 NW14G21   30.26R WCI -10          
SHELDON *      CLEAR      3  -4  72 NW23G30   30.24R WCI -19          
SIOUX CITY     CLEAR      7  -2  66 NW22G33   30.31R WCI -14          
SPENCER        CLEAR      5  -4  66 NW25G32   30.21R WCI -18          
STORM LAKE *   PTCLDY     5   0  78 NW25G33   30.19R WCI -18          
$$
 
IAZ055>058-069>071-079>083-090>094-120300-
   SOUTHWEST IOWA
  
CITY           SKY/WX    TMP DP  RH WIND       PRES   REMARKS
ATLANTIC *     CLOUDY    10   3  72 NW22G30   30.21S WCI  -9          
AUDUBON *      CLOUDY    10   3  72 NW17G28   30.19R WCI  -7          
CLARINDA *     CLOUDY    12   5  73 N17G26    30.26R WCI  -5          
COUNCIL BLFS * CLOUDY    10   7  85 NW24G31   30.24R WCI -10          
CRESTON *      LGT SNOW  12   7  79 NW28G36   30.16S WCI  -9          
HARLAN  *      MOCLDY     9   3  78 NW25      30.25S WCI -13          
LAMONI         CLOUDY    12   5  73 NW17      30.16R WCI  -5          
RED OAK *      CLOUDY    10   3  72 NW17G24   30.25R WCI  -7          
SHENANDOAH *   CLOUDY    12   5  73 NW13G20   30.27R WCI  -3          
$$
 
IAZ047>049-059>061-072>074-084-120300-
   CENTRAL IOWA
  
CITY           SKY/WX    TMP DP  RH WIND       PRES   REMARKS
AMES           CLOUDY     9   3  77 NW25G38   30.16R WCI -12          
ANKENY *       FLURRIES  10   5  79 NW18G28   30.17R WCI  -8          
BOONE *        CLOUDY     9   1  72 NW20G25   30.13R WCI -11          
CHARITON *     FLURRIES  12   7  79 NW21      30.13S WCI  -6          
DES MOINES     CLOUDY    12   4  70 NW18G33   30.16R WCI  -6          
GRINNELL*      CLOUDY     7   1  77 NW21G32   30.13R WCI -13          
KNOXVILLE *    FLURRIES  10   1  67 NW28G35   30.13R WCI -11          
MARSHALLTOWN   CLOUDY     7   2  80 NW25G32   30.12R HAZE    WCI -15  
NEWTON *       CLOUDY     9   1  72 NW23      30.15R WCI -12          
PELLA *        CLOUDY    10   3  74 NW13G21   30.16R WCI  -6          
PERRY *        CLOUDY    11   6  79 NW22G29   30.18R WCI  -8          
$$
 
IAZ004>006-015-016-023>025-035-036-120300-
   NORTH CENTRAL IOWA
  
CITY           SKY/WX    TMP DP  RH WIND       PRES   REMARKS
ALGONA *       CLOUDY     3 N/A N/A NW23G32   30.15R WCI -19          
CLARION *      CLOUDY     5   1  85 NW28G38   30.13S FOG     WCI -18  
ESTHERVILLE    CLOUDY     1  -5  75 NW28G37   30.18R WCI -24          
FORT DODGE *   FLURRIES   5  -1  76 NW14G21   30.17R WCI -12          
MASON CITY     CLOUDY     3  -2  79 NW25G32   30.11R HAZE    WCI -20  
FOREST CITY *  CLOUDY     5   0  78 NW21G30   30.12R HAZE    WCI -16  
WEBSTER CITY * FLURRIES   7   0  72 NW31      30.13R WCI -17          
IOWA FALLS *   CLOUDY     7   1  79 NW23G33   30.13R HAZE    WCI -15  
$$

IAZ007>011-017>019-026>030-037>042-050>054-066-120300-
   NORTHEAST IOWA
  
CITY           SKY/WX    TMP DP  RH WIND       PRES   REMARKS
CEDAR RAPIDS     N/A      9   0  67 NW21G30   30.06R WCI -11          
CHARLES CITY * CLOUDY     9   5  85 NW21G29   30.06R WCI -11          
CLINTON *      CLOUDY    12   7  80 NW24G31   29.99R WCI  -8          
DECORAH *      CLOUDY     9   1  72 NW21G29   30.01R WCI -11          
DUBUQUE        CLOUDY    10   3  73 NW21G30   29.96R WCI  -9          
MONTICELLO *   CLOUDY     9   1  72 NW23      30.02R WCI -12          
OELWEIN *      CLOUDY     7   5  92 NW25      30.03S WCI -15          
WATERLOO       CLOUDY     7   1  76 NW18      30.08R WCI -12          
$$
 
IAZ064-065-067-068-078-120300-
   EAST CENTRAL IOWA
  
CITY           SKY/WX    TMP DP  RH WIND       PRES   REMARKS
DAVENPORT      CLOUDY    12   5  73 NW25G32   30.03R WCI  -8          
IOWA CITY      MOCLDY    10   0  63 NW20G32   30.09R WCI  -9          
MT. PLEASANT * CLOUDY    10   3  72 NW15G28   30.09R WCI  -6          
MUSCATINE *    CLOUDY    10   3  72 NW26      30.08R WCI -11          
QUAD CITIES    CLOUDY    13   6  74 NW20G31   30.02R WCI  -5          
$$
 
IAZ062-063-075>077-085>089-095>099-120300-
   SOUTHEAST IOWA
  
CITY           SKY/WX    TMP DP  RH WIND       PRES   REMARKS
BURLINGTON     CLOUDY    11   3  70 NW17G29   30.05R WCI  -6          
FAIRFIELD *    CLOUDY     9   0  66 NW25G37   30.08S WCI -13          
FORT MADISON * MOCLDY    12   7  79 NW23G30   30.06F WCI  -7          
KEOKUK *       CLOUDY    12   7  79 NW26G37   30.06F WCI  -8          
OSKALOOSA *    MOCLDY     9   2  75 NW20      30.14R WCI -11          
OTTUMWA        CLOUDY    10   1  67 NW26G33   30.13R WCI -11          
WASHINGTON *   CLOUDY     9   1  72 NW26G37   30.10R WCI -13          
$$

ABBREVIATIONS USED IN REMARKS
   TC - TEMPERATURES IN CELSIUS
  WCI - WIND CHILL INDEX
   HX - HEAT INDEX
  VSB - VISIBILITY  
$$

  

766 
ASUS43 KDMX 120201
RWRIA 

WEATHER ROUNDUP FOR IOWA
NATIONAL WEATHER SERVICE DES MOINES IA
800 PM CST THU JAN 11 2018

NOTE: "FAIR" INDICATES FEW OR NO CLOUDS BELOW 12,000 FEET WITH NO
SIGNIFICANT WEATHER AND/OR OBSTRUCTIONS TO VISIBILITY.

* - THESE STATIONS ARE NOT NWS STATIONS...THUS NOT UNDER NWS
QUALITY CONTROL.  THEY ALSO DO NOT REPORT WEATHER SUCH 
AS PRECIPITATION OR FOG.  

IAZ001>003-012>014-020>022-031>034-043>046-120300-
   NORTHWEST IOWA
  
CITY           SKY/WX    TMP DP  RH WIND       PRES   REMARKS
CARROLL *      LGT SNOW   9   5  85 NW23G35   30.19R WCI -12          
CHEROKEE *     CLEAR      6  -1  72 N16G25    30.25R WCI -12          
DENISON *      MOCLDY     9   1  72 NW24G33   30.24R WCI -12          
LE MARS *      CLEAR      7  -2  66 NW16G22   30.29S WCI -11          
ORANGE CITY *  CLEAR      7   0  72 NW14G21   30.26R WCI -10          
SHELDON *      CLEAR      3  -4  72 NW23G30   30.24R WCI -19          
SIOUX CITY     CLEAR      7  -2  66 NW22G33   30.31R WCI -14          
SPENCER        CLEAR      5  -4  66 NW25G32   30.21R WCI -18          
STORM LAKE *   PTCLDY     5   0  78 NW25G33   30.19R WCI -18          
$$
 
IAZ055>058-069>071-079>083-090>094-120300-
   SOUTHWEST IOWA
  
CITY           SKY/WX    TMP DP  RH WIND       PRES   REMARKS
ATLANTIC *     CLOUDY    10   3  72 NW22G30   30.21S WCI  -9          
AUDUBON *      CLOUDY    10   3  72 NW17G28   30.19R WCI  -7          
CLARINDA *     CLOUDY    12   5  73 N17G26    30.26R WCI  -5          
COUNCIL BLFS * CLOUDY    10   7  85 NW24G31   30.24R WCI -10          
CRESTON *      LGT SNOW  12   7  79 NW28G36   30.16S WCI  -9          
HARLAN  *      MOCLDY     9   3  78 NW25      30.25S WCI -13          
LAMONI         CLOUDY    12   5  73 NW17      30.16R WCI  -5          
RED OAK *      CLOUDY    10   3  72 NW17G24   30.25R WCI  -7          
SHENANDOAH *   CLOUDY    12   5  73 NW13G20   30.27R WCI  -3          
$$
 
IAZ047>049-059>061-072>074-084-120300-
   CENTRAL IOWA
  
CITY           SKY/WX    TMP DP  RH WIND       PRES   REMARKS
AMES           CLOUDY     9   3  77 NW25G38   30.16R WCI -12          
ANKENY *       FLURRIES  10   5  79 NW18G28   30.17R WCI  -8          
BOONE *        CLOUDY     9   1  72 NW20G25   30.13R WCI -11          
CHARITON *     FLURRIES  12   7  79 NW21      30.13S WCI  -6          
DES MOINES     CLOUDY    12   4  70 NW18G33   30.16R WCI  -6          
GRINNELL*      CLOUDY     7   1  77 NW21G32   30.13R WCI -13          
KNOXVILLE *    FLURRIES  10   1  67 NW28G35   30.13R WCI -11          
MARSHALLTOWN   CLOUDY     7   2  80 NW25G32   30.12R HAZE    WCI -15  
NEWTON *       CLOUDY     9   1  72 NW23      30.15R WCI -12          
PELLA *        CLOUDY    10   3  74 NW13G21   30.16R WCI  -6          
$$
 
IAZ004>006-015-016-023>025-035-036-120300-
   NORTH CENTRAL IOWA
  
CITY           SKY/WX    TMP DP  RH WIND       PRES   REMARKS
ALGONA *       CLOUDY     3 N/A N/A NW23G32   30.15R WCI -19          
CLARION *      CLOUDY     5   1  85 NW28G38   30.13S FOG     WCI -18  
ESTHERVILLE    CLOUDY     1  -5  75 NW28G37   30.18R WCI -24          
FORT DODGE *   FLURRIES   5  -1  76 NW14G21   30.17R WCI -12          
MASON CITY     CLOUDY     3  -2  79 NW25G32   30.11R HAZE    WCI -20  
FOREST CITY *  CLOUDY     5   0  78 NW21G30   30.12R HAZE    WCI -16  
WEBSTER CITY * FLURRIES   7   0  72 NW31      30.13R WCI -17          
IOWA FALLS *   CLOUDY     7   2  81 NW20G28   30.11S HAZE    WCI -12  
$$

IAZ007>011-017>019-026>030-037>042-050>054-066-120300-
   NORTHEAST IOWA
  
CITY           SKY/WX    TMP DP  RH WIND       PRES   REMARKS
CEDAR RAPIDS     N/A      9   0  67 NW21G30   30.06R WCI -11          
CHARLES CITY * CLOUDY     9   5  85 NW21G29   30.06R WCI -11          
CLINTON *      CLOUDY    12   7  80 NW24G31   29.99R WCI  -8          
DECORAH *      CLOUDY     9   1  72 NW21G29   30.01R WCI -11          
DUBUQUE        CLOUDY    10   3  73 NW21G30   29.96R WCI  -9          
MONTICELLO *   CLOUDY     9   1  72 NW23      30.02R WCI -12          
OELWEIN *      CLOUDY     7   5  92 NW25      30.03S WCI -15          
WATERLOO       CLOUDY     7   1  76 NW18      30.08R WCI -12          
$$
 
IAZ064-065-067-068-078-120300-
   EAST CENTRAL IOWA
  
CITY           SKY/WX    TMP DP  RH WIND       PRES   REMARKS
DAVENPORT      CLOUDY    12   5  73 NW25G32   30.03R WCI  -8          
IOWA CITY      MOCLDY    10   0  63 NW20G32   30.09R WCI  -9          
MT. PLEASANT * CLOUDY    10   3  72 NW15G28   30.09R WCI  -6          
MUSCATINE *    CLOUDY    10   3  72 NW26      30.08R WCI -11          
QUAD CITIES    CLOUDY    13   6  74 NW20G31   30.02R WCI  -5          
$$
 
IAZ062-063-075>077-085>089-095>099-120300-
   SOUTHEAST IOWA
  
CITY           SKY/WX    TMP DP  RH WIND       PRES   REMARKS
BURLINGTON     CLOUDY    11   4  73 NW16G30   30.05R WCI  -6          
FAIRFIELD *    CLOUDY     9   0  66 NW25G37   30.08S WCI -13          
FORT MADISON * MOCLDY    12   7  79 NW23G30   30.06F WCI  -7          
KEOKUK *       CLOUDY    12   7  79 NW26G37   30.06F WCI  -8          
OSKALOOSA *    MOCLDY     9   2  75 NW20      30.14R WCI -11          
OTTUMWA        FLURRIES  10   2  69 NW25G32   30.13R WCI -11          
WASHINGTON *   CLOUDY     9   1  72 NW26G37   30.10R WCI -13          
$$

ABBREVIATIONS USED IN REMARKS
   TC - TEMPERATURES IN CELSIUS
  WCI - WIND CHILL INDEX
   HX - HEAT INDEX
  VSB - VISIBILITY  
$$